TimeCST,TemperatureF,Dew PointF,Humidity,Sea Level PressureIn,VisibilityMPH,Wind Direction,Wind SpeedMPH,Gust SpeedMPH,PrecipitationIn,Events,Conditions,WindDirDegrees,DateUTC
12:13 AM,42.8,26.6,53,29.70,10.0,SE,6.9,-,N/A,,Clear,140,2012-12-06 06:13:00
12:34 AM,42.8,26.6,53,29.69,10.0,SE,5.8,-,N/A,,Clear,130,2012-12-06 06:34:00
12:54 AM,42.8,26.6,53,29.69,10.0,SE,5.8,-,N/A,,Clear,140,2012-12-06 06:54:00
1:14 AM,42.8,26.6,53,29.69,10.0,SE,3.5,-,N/A,,Clear,140,2012-12-06 07:14:00
1:34 AM,42.8,26.6,53,29.69,10.0,SSE,4.6,-,N/A,,Clear,160,2012-12-06 07:34:00
1:53 AM,42.8,26.6,53,29.70,10.0,Calm,Calm,-,N/A,,Clear,0,2012-12-06 07:53:00
2:13 AM,42.8,26.6,53,29.71,10.0,Calm,Calm,-,N/A,,Clear,0,2012-12-06 08:13:00
2:33 AM,39.2,26.6,61,29.72,10.0,Calm,Calm,-,N/A,,Mostly Cloudy,0,2012-12-06 08:33:00
2:54 AM,39.2,28.4,65,29.73,10.0,Calm,Calm,-,N/A,Rain,Light Rain,0,2012-12-06 08:54:00
3:14 AM,41.0,30.2,65,29.74,10.0,WSW,5.8,-,N/A,Rain,Light Rain,250,2012-12-06 09:14:00
3:33 AM,41.0,30.2,65,29.75,10.0,West,8.1,-,N/A,Rain,Light Rain,260,2012-12-06 09:33:00
3:53 AM,39.2,32.0,75,29.75,10.0,West,6.9,-,N/A,,Overcast,270,2012-12-06 09:53:00
4:13 AM,39.2,30.2,70,29.76,10.0,WNW,11.5,-,N/A,,Mostly Cloudy,290,2012-12-06 10:13:00
4:33 AM,41.0,30.2,65,29.77,10.0,WNW,11.5,-,N/A,,Scattered Clouds,300,2012-12-06 10:33:00
4:54 AM,41.0,28.4,61,29.78,10.0,WNW,11.5,-,N/A,,Clear,300,2012-12-06 10:54:00
5:14 AM,39.2,28.4,65,29.78,10.0,WNW,9.2,-,N/A,,Clear,300,2012-12-06 11:14:00
5:33 AM,39.2,28.4,65,29.79,10.0,WNW,11.5,-,N/A,,Clear,300,2012-12-06 11:33:00
5:53 AM,39.2,28.4,65,29.81,10.0,NW,16.1,21.9,N/A,,Clear,310,2012-12-06 11:53:00
6:14 AM,39.2,28.4,65,29.82,10.0,NW,15.0,-,N/A,,Clear,320,2012-12-06 12:14:00
6:33 AM,37.4,28.4,70,29.83,10.0,NW,12.7,-,N/A,,Clear,320,2012-12-06 12:33:00
6:53 AM,35.6,28.4,75,29.84,10.0,WNW,11.5,-,N/A,,Clear,300,2012-12-06 12:53:00
7:14 AM,37.4,28.4,70,29.84,10.0,WNW,15.0,19.6,N/A,,Clear,300,2012-12-06 13:14:00
7:34 AM,35.6,28.4,75,29.84,10.0,WNW,11.5,-,N/A,,Clear,290,2012-12-06 13:34:00
7:54 AM,35.6,28.4,75,29.85,10.0,WNW,15.0,-,N/A,,Clear,290,2012-12-06 13:54:00
8:13 AM,37.4,28.4,70,29.85,10.0,WNW,11.5,-,N/A,,Clear,290,2012-12-06 14:13:00
8:33 AM,35.6,28.4,75,29.86,10.0,WNW,10.4,-,N/A,,Clear,290,2012-12-06 14:33:00
8:54 AM,35.6,30.2,81,29.86,10.0,WNW,11.5,-,N/A,,Clear,300,2012-12-06 14:54:00
9:14 AM,39.2,30.2,70,29.87,10.0,WNW,11.5,17.3,N/A,,Clear,300,2012-12-06 15:14:00
9:34 AM,39.2,30.2,70,29.88,10.0,NW,17.3,24.2,N/A,,Clear,310,2012-12-06 15:34:00
9:54 AM,41.0,30.2,65,29.89,10.0,NW,20.7,26.5,N/A,,Clear,320,2012-12-06 15:54:00
10:13 AM,41.0,30.2,65,29.89,10.0,NNW,18.4,24.2,N/A,,Clear,330,2012-12-06 16:13:00
10:33 AM,41.0,28.4,61,29.90,10.0,NNW,16.1,24.2,N/A,,Clear,330,2012-12-06 16:33:00
10:54 AM,39.2,28.4,65,29.90,10.0,NNW,20.7,-,N/A,,Clear,340,2012-12-06 16:54:00
11:14 AM,39.2,28.4,65,29.89,10.0,NNW,18.4,24.2,N/A,,Clear,330,2012-12-06 17:14:00
11:34 AM,41.0,28.4,61,29.90,10.0,NW,17.3,21.9,N/A,,Clear,320,2012-12-06 17:34:00
11:54 AM,41.0,26.6,57,29.90,10.0,NNW,15.0,20.7,N/A,,Clear,330,2012-12-06 17:54:00
12:13 PM,41.0,26.6,57,29.90,10.0,NW,17.3,-,N/A,,Clear,320,2012-12-06 18:13:00
12:34 PM,42.8,26.6,53,29.90,10.0,NW,20.7,26.5,N/A,,Clear,320,2012-12-06 18:34:00
12:54 PM,42.8,26.6,53,29.90,10.0,NW,18.4,24.2,N/A,,Clear,320,2012-12-06 18:54:00
1:14 PM,42.8,26.6,53,29.91,10.0,NW,16.1,23.0,N/A,,Clear,320,2012-12-06 19:14:00
1:34 PM,39.2,26.6,61,29.91,10.0,NW,16.1,-,N/A,,Clear,320,2012-12-06 19:34:00
1:54 PM,41.0,26.6,57,29.92,10.0,NW,17.3,-,N/A,,Clear,320,2012-12-06 19:54:00
2:14 PM,41.0,24.8,53,29.92,10.0,NW,17.3,21.9,N/A,,Clear,310,2012-12-06 20:14:00
2:34 PM,39.2,24.8,56,29.92,10.0,WNW,16.1,20.7,N/A,,Clear,300,2012-12-06 20:34:00
2:54 PM,41.0,26.6,57,29.93,10.0,NW,17.3,20.7,N/A,,Clear,310,2012-12-06 20:54:00
3:14 PM,39.2,26.6,61,29.93,10.0,NW,15.0,19.6,N/A,,Clear,320,2012-12-06 21:14:00
3:34 PM,39.2,24.8,56,29.94,10.0,NW,12.7,-,N/A,,Clear,310,2012-12-06 21:34:00
3:54 PM,39.2,23.0,52,29.94,10.0,NW,17.3,-,N/A,,Clear,310,2012-12-06 21:54:00
4:14 PM,39.2,21.2,49,29.96,10.0,NW,16.1,19.6,N/A,,Clear,310,2012-12-06 22:14:00
4:34 PM,35.6,21.2,56,29.97,10.0,NW,12.7,-,N/A,,Clear,320,2012-12-06 22:34:00
4:54 PM,33.8,19.4,56,29.97,10.0,NW,10.4,-,N/A,,Clear,320,2012-12-06 22:54:00
5:14 PM,30.2,19.4,64,29.98,10.0,NW,6.9,-,N/A,,Clear,310,2012-12-06 23:14:00
5:34 PM,30.2,19.4,64,29.98,10.0,NW,5.8,-,N/A,,Clear,310,2012-12-06 23:34:00
5:54 PM,28.4,19.4,69,29.98,10.0,NW,5.8,-,N/A,,Clear,320,2012-12-06 23:54:00
6:13 PM,28.4,19.4,69,29.99,10.0,NNW,3.5,-,N/A,,Clear,340,2012-12-07 00:13:00
6:33 PM,26.6,17.6,69,29.99,10.0,North,3.5,-,N/A,,Clear,360,2012-12-07 00:33:00
6:54 PM,24.8,17.6,74,30.00,10.0,NNW,5.8,-,N/A,,Clear,340,2012-12-07 00:54:00
7:14 PM,24.8,17.6,74,29.99,10.0,NW,4.6,-,N/A,,Clear,320,2012-12-07 01:14:00
7:34 PM,26.6,19.4,74,30.00,10.0,NNW,4.6,-,N/A,,Clear,330,2012-12-07 01:34:00
7:54 PM,24.8,17.6,74,30.00,10.0,NNW,3.5,-,N/A,,Clear,340,2012-12-07 01:54:00
8:33 PM,21.2,15.8,80,30.01,10.0,WNW,3.5,-,N/A,,Clear,300,2012-12-07 02:33:00
8:54 PM,23.0,17.6,80,30.02,10.0,WNW,5.8,-,N/A,,Clear,290,2012-12-07 02:54:00
9:13 PM,19.4,15.8,86,30.01,10.0,WNW,4.6,-,N/A,,Clear,290,2012-12-07 03:13:00
9:33 PM,23.0,17.6,80,30.01,10.0,NNW,5.8,-,N/A,,Clear,330,2012-12-07 03:33:00
9:54 PM,19.4,17.6,93,30.01,10.0,Calm,Calm,-,N/A,,Clear,0,2012-12-07 03:54:00
10:14 PM,21.2,17.6,86,30.01,10.0,Calm,Calm,-,N/A,,Clear,0,2012-12-07 04:14:00
10:53 PM,21.2,17.6,86,30.01,10.0,Calm,Calm,-,N/A,,Clear,0,2012-12-07 04:53:00
11:14 PM,21.2,17.6,86,30.01,10.0,WNW,4.6,-,N/A,,Clear,290,2012-12-07 05:14:00
11:33 PM,23.0,19.4,86,30.01,10.0,West,4.6,-,N/A,,Clear,280,2012-12-07 05:33:00
11:53 PM,24.8,19.4,80,30.02,10.0,West,3.5,-,N/A,,Clear,280,2012-12-07 05:53:00